This demonstration page uses our WeatherBlox Daily Observations layout. Learn more.

Left ArrowRight Arrow

53.62937, 11.41316

Hourly Observations for February 17, 2020

Temp ( °F °C ) Dew Point ( °F °C ) Humidity (%) Winds ( mph kmh ) Pressure ( in mb ) Visibility ( mi km ) Precip ( " mm )
6:50 am 06:50 Partly Cloudy 46 8 36 2 66 66 WSW 21 33 29.68 1005 30 48 N/A
7:20 am 07:20 Partly Cloudy 46 8 34 1 62 62 WSW 26 43 29.68 1005 30 48 N/A
7:50 am 07:50 Partly Cloudy 45 7 34 1 66 66 WSW 20 31 29.71 1006 30 48 N/A
8:20 am 08:20 Mostly Sunny 45 7 34 1 66 66 SW 20 31 29.74 1007 30 48 N/A
8:50 am 08:50 Mostly Sunny 45 7 34 1 66 66 SW 17 28 29.74 1007 30 48 N/A
9:20 am 09:20 Mostly Sunny 46 8 34 1 62 62 SW 21 33 29.74 1007 30 48 N/A
9:50 am 09:50 Mostly Sunny 46 8 34 1 62 62 SW 18 30 29.74 1007 7 11 N/A
10:20 am 10:20 Mostly Sunny 46 8 34 1 62 62 SW 20 31 29.74 1007 7 11 N/A
10:50 am 10:50 Mostly Sunny 48 9 34 1 58 58 SW 21 33 29.74 1007 7 11 N/A
11:20 am 11:20 Mostly Sunny 48 9 34 1 58 58 SW 23 37 29.77 1008 7 11 N/A
11:50 am 11:50 Mostly Sunny 50 10 34 1 54 54 SW 18 30 29.77 1008 30 48 N/A
12:20 pm 12:20 Partly Cloudy 50 10 34 1 54 54 SW 22 35 29.77 1008 30 48 N/A
12:50 pm 12:50 Partly Cloudy 50 10 36 2 58 58 SW 21 33 29.77 1008 30 48 N/A
1:20 pm 13:20 Mostly Cloudy 50 10 36 2 58 58 WSW 24 39 29.77 1008 30 48 N/A
1:50 pm 13:50 Partly Cloudy 50 10 36 2 58 58 SW 20 31 29.77 1008 30 48 N/A
2:20 pm 14:20 Partly Cloudy 50 10 36 2 58 58 SW 21 33 29.74 1007 30 48 N/A
2:50 pm 14:50 Partly Cloudy 50 10 34 1 54 54 WSW 24 39 29.77 1008 30 48 N/A
3:20 pm 15:20 Partly Cloudy 50 10 34 1 54 54 SW 21 33 29.77 1008 30 48 N/A
3:50 pm 15:50 Mostly Sunny 50 10 34 1 54 54 SW 18 30 29.74 1007 7 11 N/A
4:20 pm 16:20 Mostly Sunny 50 10 34 1 54 54 SW 16 26 29.74 1007 7 11 N/A
4:50 pm 16:50 Mostly Sunny 50 10 34 1 54 54 SW 15 24 29.74 1007 7 11 N/A
5:20 pm 17:20 Mostly Sunny 48 9 34 1 58 58 SW 14 22 29.74 1007 7 11 N/A
5:50 pm 17:50 Mostly Cloudy 48 9 34 1 58 58 SW 13 20 29.74 1007 30 48 N/A
6:20 pm 18:20 Partly Cloudy 46 8 37 3 71 71 WSW 16 26 29.77 1008 30 48 N/A
6:50 pm 18:50 Mostly Clear 45 7 37 3 76 76 WSW 17 28 29.77 1008 7 11 N/A
7:20 pm 19:20 Partly Cloudy 45 7 36 2 71 71 WSW 17 28 29.80 1009 30 48 N/A
7:50 pm 19:50 Mostly Cloudy 45 7 36 2 71 71 SW 14 22 29.80 1009 30 48 N/A

Powered by AerisWeather